Weather in Shilda

Russia / Orenburg Oblast     51˚48′53″N   59˚46′17″E
temp.,
°C
wind,
m/s
gust,
m/s
humid.,
%
clouds,
%
prec.,
mm/h
press.,
hPa
HPBL,
m
28 november, sat
sat2823:00−12˚n239538 0.0 103021
02:00−12˚nnw33950 0.0 103131
05:00−12˚nnw339520 0.0 103336
08:00−12˚nnw339540 0.0 103532
11:00−11˚nnw239420 0.0 103875
14:00−9˚nw24910 0.0 1040167
17:00−11˚nw22910 0.0 104221
20:00−12˚nnw11910 0.0 104421
29 november, sun
sun2923:00−12˚nnw01913 0.0 104521
02:00−13˚n019110 0.0 104621
05:00−13˚e119122 0.0 104821
08:00−11˚se1190100 0.0 104921
11:00−10˚s0189100 0.0 105123
14:00−9˚se1189100 0.0 105044
17:00−11˚sse1188100 0.0 105121
20:00−10˚se1188100 0.0 105121
30 november, mon
mon3023:00−10˚ese1188100 0.0 105221
02:00−10˚ese118992 0.0 105221
05:00−11˚ene129096 0.0 105221
08:00−13˚ene239052 0.0 105220
11:00−12˚ene239226 0.0 105369
14:00−10˚ene24910 0.0 1052171
17:00−13˚ne33920 0.0 105228
20:00−14˚ne34940 0.0 105258
1 december, tue
tue123:00−15˚ne34950 0.0 105282
02:00−16˚ene46950 0.0 105292
05:00−17˚ne46950 0.0 1051115
08:00−17˚ene48950 0.0 1050141
11:00−16˚ene58920 0.0 1051247
14:00−15˚ene57900 0.0 1049260
17:00−17˚ne48930 0.0 1049166
20:00−17˚ene59930 0.0 1049183
2 december, wed
wed223:00−18˚ene511940 0.0 1048200
02:00−18˚ne59940 0.0 1047189
05:00−18˚ne59940 0.0 1046182
08:00−18˚ne511950 0.0 1046212
11:00−16˚ne699418 0.0 1044254
14:00−14˚ne6109296 0.0 1042275
17:00−15˚ne5109398 0.0 1041277
20:00−15˚ne5119496 0.0 1040272